User: anonymous   Login
Location: Fishcreek Rd Observing Site
(41.1865°N, 81.4271°W)
Time: 09:06:40
(UTC-04:00)
Language:

Iridium 75 - Orbit

View from above orbital plane
View from above orbital plane
View from above satellite
View from above satellite

Ground track
Ground track

The orbit data is extracted from the following two-line orbital elements,

1 25346U 98032E   16242.51700032  .00000006  00000-0 -49353-5 0  9991
2 25346  86.4005 346.0458 0002186  96.6644 356.7177 14.34221119957866
Epoch (UTC): 29 August 2016 12:24:28
Eccentricity: 0.0002186
inclination: 86.4005°
perigee height: 776 km
apogee height: 779 km
right ascension of ascending node: 346.0458°
argument of perigee: 96.6644°
revolutions per day: 14.34221119
mean anomaly at epoch: 356.7177°
orbit number at epoch: 95786

The dashed part of the orbit path shows where the satellite is in the earth's shadow,  

DLR